Tracking 25934 objects as of 10-Aug-2022
HD Live streaming from Space Station
objects crossing your sky now

NINGXIA-1 5

Track NINGXIA-1 5 now!
10-day predictions


NORAD ID: 44783
Int'l Code: 2019-076E
Perigee: 886.7 km
Apogee: 903.5 km
Inclination: 45.0 °
Period: 102.7 minutes
Semi major axis: 7266 km
RCS: Unknown
Launch date: November 13, 2019
Source: People's Republic of China (PRC)
Launch site: Taiyaun Space Center, China (TSC)
aabbcc
Your satellite tracking list
Your tracking list is empty




NASA's NSSDC Master Catalog

Two Line Element Set (TLE):
1 44783U 19076E   22222.54014848 -.00000130  00000-0 -45909-6 0  9992
2 44783  45.0093 343.5013 0011543 326.4912  33.5192 14.01689316140488
Source of the keplerian elements: AFSPC